Weather History for Montgomery, AL

Change the Weather History Date:

Wednesday, November 21, 2012

  Actual Average Record
Temperature  
Mean Temperature 60 °F 55 °F  
Max Temperature 77 °F 67 °F 83 °F (2011)
Min Temperature 42 °F 42 °F 21 °F (1887)
Degree Days  
Heating Degree Days 5 11  
Month to date heating degree days 203 171  
Since 1 July heating degree days 270 262  
Growing Degree Days 10 (Base 50)    
Moisture  
Dew Point 46 °F    
Average Humidity 66    
Maximum Humidity 96    
Minimum Humidity 36    
Precipitation  
Precipitation 0.00 in 0.17 in 3.22 in (1991)
Month to date precipitation 0.81 3.08  
Year to date precipitation 36.27 46.68  
Snow  
Snow 0.00 in 0.00 in - ()
Month to date snowfall 0.0 0.0  
Since 1 July snowfall 0.0 0.0  
Since 1 September snowfall 0.0 0.0  
Snow Depth 0.00 in    
Sea Level Pressure  
Sea Level Pressure 30.15 in    
Wind  
Wind Speed 2 mph (NW)    
Max Wind Speed 10 mph    
Max Gust Speed 14 mph    
Visibility 9 miles    
Events      
T = Trace of Precipitation, MM = Missing Value Source: NWS Daily Summary

Daily Weather History Graph

Daily Weather History Graph

Search for Another Location

Airport:

Trip Planner

Search our weather history database for the weather conditions in past years. The results will help you decide how hot, cold, wet, or windy it might be!

Date:

Astronomy

Nov. 21, 2012 Rise Set
Actual Time 6:20 AM CST 4:42 PM CST
Civil Twilight 5:54 AM CST 5:08 PM CST
Nautical Twilight 5:24 AM CST 5:38 PM CST
Astronomical Twilight 4:55 AM CST 6:07 PM CST
Moon 12:39 PM CST (11/21) 12:00 AM CST (11/21)
Length of Visible Light 11h 14m
Length of Day
10h 21m
First Quarter, 62% of the Moon is Illuminated
Nov 21
First Quarter
Nov 28
Full
Dec 6
Last Quarter
Dec 13
New
Dec 19
First Quarter

Hourly Weather History & Observations

Time (CST) Temp. Windchill Dew Point Humidity Pressure Visibility Wind Dir Wind Speed Gust Speed Precip Events Conditions
12:53 AM 46.9 °F - 45.0 °F 93% 30.14 in 9.0 mi Calm Calm - N/A   Overcast
1:53 AM 50.0 °F - 46.9 °F 89% 30.13 in 10.0 mi Calm Calm - N/A   Overcast
2:53 AM 50.0 °F - 46.9 °F 89% 30.13 in 9.0 mi Calm Calm - N/A   Overcast
3:53 AM 46.9 °F - 44.1 °F 90% 30.13 in 9.0 mi SSW 3.5 mph - N/A   Partly Cloudy
4:53 AM 44.1 °F - 42.1 °F 93% 30.14 in 5.0 mi Calm Calm - N/A   Clear
5:53 AM 42.1 °F - 41.0 °F 96% 30.15 in 6.0 mi Calm Calm - N/A   Clear
6:53 AM 45.0 °F 43.5 °F 43.0 °F 93% 30.17 in 4.0 mi SW 3.5 mph - N/A   Partly Cloudy
7:53 AM 51.1 °F - 46.9 °F 86% 30.18 in 10.0 mi Calm Calm - N/A   Clear
8:53 AM 57.9 °F - 48.0 °F 70% 30.19 in 10.0 mi Calm Calm - N/A   Clear
9:53 AM 66.0 °F - 48.9 °F 54% 30.18 in 10.0 mi Calm Calm - N/A   Clear
10:53 AM 71.1 °F - 48.9 °F 45% 30.16 in 10.0 mi Calm Calm - N/A   Clear
11:53 AM 73.9 °F - 48.9 °F 41% 30.14 in 10.0 mi NNW 4.6 mph - N/A   Clear
12:53 PM 75.9 °F - 48.0 °F 37% 30.12 in 10.0 mi NW 8.1 mph - N/A   Scattered Clouds
1:53 PM 73.0 °F - 46.0 °F 38% 30.11 in 10.0 mi NW 8.1 mph - N/A   Scattered Clouds
2:53 PM 75.9 °F - 46.0 °F 35% 30.10 in 10.0 mi NW 9.2 mph - N/A   Scattered Clouds
3:53 PM 72.0 °F - 46.0 °F 40% 30.12 in 10.0 mi North 5.8 mph - N/A   Clear
4:53 PM 66.9 °F - 45.0 °F 45% 30.12 in 10.0 mi North 4.6 mph - N/A   Clear
5:53 PM 64.0 °F - 44.1 °F 48% 30.14 in 10.0 mi NNW 3.5 mph - N/A   Clear
6:53 PM 57.0 °F - 44.1 °F 62% 30.15 in 10.0 mi Calm Calm - N/A   Clear
7:53 PM 52.0 °F - 44.1 °F 74% 30.17 in 10.0 mi Calm Calm - N/A   Clear
8:53 PM 54.0 °F - 46.0 °F 75% 30.18 in 10.0 mi Calm Calm - N/A   Clear
9:53 PM 50.0 °F - 45.0 °F 83% 30.18 in 10.0 mi Calm Calm - N/A   Clear
10:53 PM 46.0 °F - 42.1 °F 86% 30.18 in 9.0 mi Calm Calm - N/A   Clear
11:53 PM 46.9 °F - 44.1 °F 90% 30.19 in 7.0 mi Calm Calm - N/A   Clear